Location: Newark
(36.0797°N, 3.9744°E)
Time: 13:28:15
(UTC+00:00)

Vanguard 2 Rocket - Pass Details

Date: 12 December 2019
Orbit: 554 x 3326 km, 32.9° (Epoch: 22 January)

Event Time Altitude Azimuth Distance (km) Brightness Sun altitude
Rises 18:10:38 0° 255° (WSW) 6,768 13.0 -19.7°
Reaches altitude 10° 18:15:42 10° 254° (WSW) 5,406 12.0 -20.7°
Maximum altitude 18:30:17 72° 174° (S) 1,807 8.3 -23.6°
Enters shadow 18:34:20 38° 100° (E) 2,084 8.2 -24.4°
Drops below altitude 10° 18:38:16 10° 91° (E) 3,118 - -25.1°
Sets 18:40:26 0° 89° (E) 3,826 - -25.6°
